[[{"header":{"parameterUnit":"m.s-1","parameterCategory":2,"la1":30.2991,"la2":30.254,"lo1":-89.0895,"lo2":-89.0444,"dy":0.0017,"dx":0.0017,"nx":28,"ny":28,"refTime":"2025-05-29T09:00:00:Z","depth":"0","parameterNumber":2,"parameterNumberName":"U-component_of_CURRENTS"},"data":[0,0,0,0,0,0,0,0,0,0,0,0,0,0,0,0,0,0,0,0,0,0,0,0,0,0,0,0,0,0,0,0,0,0,0,0,0,0,0,0,0,0,0,0,0,0,0,0,0,0,0,0,0,0,0,0,0,0,0.4332,0.4333,0,0.4304,0.4302,0.4301,0.4242,0.4242,0.4242,0.4242,0.4167,0.4165,0.4163,0,0,0,0,0,0,0,0,0,0,0,0,0,0.4161,0.4165,0.4332,0.4333,0.4334,0.4304,0.4302,0.4301,0.4242,0.4242,0.4242,0.4242,0.4167,0.4165,0.4163,0,0,0,0,0,0,0,0,0,0,0,0,0,0.4184,0.4166,0.4332,0.4309,0.4308,0.4304,0.4302,0.43,0.4242,0.4242,0.4242,0.4242,0.4168,0.4165,0.4163,0.4148,0,0,0.4154,0.4153,0,0,0,0,0,0,0,0,0.4183,0.4189,0.4312,0.4311,0.431,0.4287,0.4215,0.4251,0.4242,0.4255,0.4242,0.4242,0.421,0.4204,0.4183,0.4145,0.4142,0.4154,0.4152,0.4151,0.415,0,0,0,0,0,0,0,0.4182,0.4189,0.4309,0.4313,0.4312,0.4242,0.4245,0.422,0.4224,0.4254,0.4252,0.4268,0.4208,0.4186,0.4181,0.414,0.4154,0.4151,0.4149,0.4148,0.4212,0.4216,0,0,0,0,0,0,0.4219,0.4189,0.431,0.4309,0.4258,0.4247,0.4249,0.4285,0.4225,0.422,0.4268,0.4266,0.4191,0.4184,0.4178,0.4229,0.4151,0.4148,0.4146,0.4209,0.4213,0.4217,0,0,0,0,0,0,0.4216,0.4231,0.4311,0.4255,0.4263,0.4252,0.429,0.4284,0.4253,0.4239,0.423,0.4244,0.419,0.4182,0.4165,0.4223,0.4147,0.4144,0.4205,0.421,0.4215,0.4286,0,0,0,0,0,0,0.4211,0.423,0.4247,0.426,0.4268,0.429,0.4292,0.4284,0.4269,0.4265,0.4215,0.4208,0.419,0.417,0.4163,0.4218,0.4142,0.4201,0.4207,0.4213,0.4279,0.4293,0.4304,0,0,0,0,0,0.4205,0.425,0.4249,0.4263,0.43,0.429,0.4284,0.4267,0.4269,0.4239,0.4234,0.4209,0.4208,0.4168,0.4159,0.4216,0.4197,0.4205,0.4213,0.4274,0.429,0.4304,0,0,0,0,0,0,0.4166,0.425,0.4248,0.4309,0.4288,0.4284,0.4282,0.4263,0.4233,0.4241,0.4214,0.4206,0.4231,0.4211,0.4169,0.4263,0.4214,0.422,0.4264,0.4279,0.4292,0.4325,0.414,0,0,0,0,0,0.4174,0.4231,0.4258,0.4288,0.4301,0.4283,0.4276,0.4261,0.4253,0.4237,0.422,0.4231,0.4258,0.4253,0.426,0.4274,0.4277,0.4322,0.4335,0.4345,0.4373,0.4432,0.4451,0.4242,0.4242,0.4242,0,0,0.4158,0.4215,0.4239,0.4282,0.428,0.4298,0.4275,0.4272,0.4294,0.4237,0.4261,0.4258,0.4273,0.4313,0.4325,0.4297,0.4404,0.4355,0.4363,0.4386,0.4442,0.4462,0.448,0.4247,0.4246,0.4245,0,0,0.4161,0.4217,0.426,0.4258,0.4277,0.4292,0.4292,0.4293,0.4304,0.4307,0.432,0.435,0.4343,0.4392,0.4414,0.4499,0.447,0.4509,0.4588,0.4645,0.4662,0.4677,0.4682,0.4697,0.4513,0.4513,0.4513,0,0.4126,0.4205,0.425,0.4277,0.4292,0.4299,0.4314,0.4339,0.4326,0.4358,0.4327,0.44,0.44,0.4501,0.455,0.4529,0.4533,0.4518,0.4658,0.4674,0.4688,0.469,0.4705,0.4518,0.4517,0.4517,0.4516,0,0.4157,0.4201,0.4226,0.4294,0.4303,0.4315,0.4372,0.4396,0.4421,0.4442,0.4517,0.4526,0.4568,0.4598,0.4597,0.4725,0.4683,0.4663,0.461,0.4713,0.4708,0.4723,0.4524,0.4522,0.4521,0.452,0,0,0.4119,0.4231,0.4232,0.4263,0.4316,0.4333,0.4413,0.4485,0.4553,0.4567,0.4644,0.4724,0.4723,0.4754,0.4767,0.4833,0.4931,0.48,0.48,0.4787,0.5022,0.4845,0.4843,0.4927,0.4931,0.4934,0.4966,0,0.4114,0.4205,0.4246,0.4294,0.4352,0.4387,0.4459,0.4524,0.4588,0.4668,0.4737,0.4804,0.479,0.4812,0.4882,0.4926,0.498,0.4922,0.4941,0.4941,0.4758,0.4859,0.4591,0.4586,0.498,0.4983,0.4985,0,0.4131,0.4202,0.4276,0.4354,0.4376,0.4394,0.4521,0.4575,0.471,0.4757,0.4839,0.4877,0.4998,0.4958,0.5079,0.5037,0.505,0.5071,0.5071,0.4899,0.4794,0.4556,0.4598,0.4489,0.5007,0.5005,0.5004,0,0.4146,0.4215,0.4294,0.4311,0.4406,0.4434,0.4478,0.4598,0.468,0.4817,0.4877,0.4989,0.5048,0.5108,0.5143,0.5121,0.525,0.521,0.506,0.5045,0.4819,0.4777,0.4744,0.5306,0.5305,0.5305,0.5305,0,0.4169,0.4214,0.4302,0.4339,0.4403,0.4448,0.453,0.46,0.4723,0.4819,0.4914,0.5005,0.5096,0.5167,0.5183,0.5156,0.5271,0.5099,0.5061,0.4832,0.4793,0.4687,0.4658,0.5306,0.5306,0.5306,0.5306,0,0.4187,0.425,0.4319,0.44,0.442,0.4459,0.4538,0.4619,0.4722,0.4849,0.4896,0.505,0.5103,0.5153,0.524,0.518,0.5025,0.5149,0.4844,0.4769,0.4469,0.4453,0.4269,0.415,0.4973,0.4969,0.4966,0,0.4217,0.4269,0.435,0.4371,0.4394,0.4456,0.4517,0.4619,0.4696,0.4866,0.4928,0.5028,0.5051,0.5082,0.4987,0.4927,0.4872,0.4674,0.4591,0.4435,0.4393,0.4283,0.4191,0.4317,0.4309,0.4302,0.4296,0,0.4248,0.4271,0.4327,0.4375,0.4415,0.4469,0.4535,0.4588,0.471,0.4777,0.4852,0.4878,0.4872,0.4673,0.4589,0.454,0.4412,0.4527,0.4469,0.3968,0.3748,0.3617,0.4296,0.4236,0.4242,0.4246,0.4249,0.4252,0.424,0.4269,0.4326,0.4333,0.4379,0.4401,0.4358,0.4433,0.4467,0.4431,0.4632,0.4511,0.4435,0.4236,0.4169,0.3863,0.3951,0.3728,0.3749,0.3674,0.3469,0.3986,0.3817,0.382,0.3823,0.3826,0.3828,0,0.4207,0.4244,0.4271,0.4245,0.4189,0.4268,0.4304,0.4194,0.4089,0.4137,0.4089,0.3899,0.3687,0.3605,0.3321,0.3137,0.3028,0.3061,0.2882,0.2856,0.3396,0.3275,0.2854,0.2854,0.2854,0.2854,0.2854,0.2854,0.4208,0.4205,0.4191,0.4027,0.3985,0.3847,0.3796,0.3674,0.3628,0.3368,0.3191,0.3182,0.3196,0.3026,0.2757,0.2669,0.2515,0.2324,0.244,0.2856,0.2921,0.2983,0.2865,0.2365,0.2364,0.1736,0.1731,0.1727]},{"header":{"parameterUnit":"m.s-1","parameterCategory":2,"la1":30.2991,"la2":30.254,"lo1":-89.0895,"lo2":-89.0444,"dy":0.0017,"dx":0.0017,"nx":28,"ny":28,"refTime":"2025-05-29T09:00:00:Z","depth":"0","parameterNumber":3,"parameterNumberName":"V-component_of_CURRENTS"},"data":[0,0,0,0,0,0,0,0,0,0,0,0,0,0,0,0,0,0,0,0,0,0,0,0,0,0,0,0,0,0,0,0,0,0,0,0,0,0,0,0,0,0,0,0,0,0,0,0,0,0,0,0,0,0,0,0,0,0,0.022,0.0219,0,0.0197,0.0197,0.0197,0.0182,0.0182,0.0181,0.0181,0.0096,0.0094,0.0092,0,0,0,0,0,0,0,0,0,0,0,0,0,0.0259,0.0258,0.022,0.0219,0.0218,0.0197,0.0197,0.0197,0.0183,0.0182,0.0181,0.0181,0.0096,0.0094,0.0092,0,0,0,0,0,0,0,0,0,0,0,0,0,0.0244,0.0258,0.022,0.0205,0.0203,0.0197,0.0197,0.0197,0.0183,0.0182,0.0181,0.018,0.0097,0.0094,0.0092,0.0092,0,0,0.0084,0.0083,0,0,0,0,0,0,0,0,0.0245,0.0243,0.0208,0.0206,0.0203,0.0187,0.0179,0.0157,0.0183,0.0196,0.0181,0.018,0.0118,0.0113,0.0119,0.0088,0.0085,0.0083,0.0082,0.0081,0.008,0,0,0,0,0,0,0,0.0246,0.0244,0.0216,0.0207,0.0204,0.0201,0.0199,0.0176,0.0164,0.0195,0.0192,0.0182,0.0117,0.0122,0.0117,0.0083,0.0084,0.0081,0.008,0.0079,0.0021,0.0021,0,0,0,0,0,0,0.0239,0.0245,0.0216,0.0215,0.0217,0.0201,0.0198,0.0197,0.0166,0.0159,0.0182,0.0181,0.0127,0.012,0.0113,0.0109,0.0081,0.0078,0.0077,0.0021,0.0021,0.0021,0,0,0,0,0,0,0.024,0.0237,0.0217,0.0225,0.0221,0.02,0.02,0.0197,0.0195,0.0156,0.015,0.0181,0.0126,0.0117,0.0087,0.0105,0.0077,0.0075,0.0021,0.0021,0.0021,0.0101,0,0,0,0,0,0,0.0242,0.0238,0.0241,0.0225,0.022,0.0219,0.02,0.0197,0.0188,0.0186,0.0153,0.0145,0.0124,0.0092,0.0085,0.0101,0.0073,0.0021,0.0021,0.0021,0.0098,0.0104,0.0108,0,0,0,0,0,0.0243,0.0248,0.0242,0.0238,0.0224,0.0219,0.0218,0.0203,0.0189,0.0197,0.0166,0.0146,0.0087,0.009,0.0082,0.0097,0.0021,0.0021,0.0021,0.0096,0.0103,0.0108,0,0,0,0,0,0,0.0261,0.0246,0.0239,0.0237,0.023,0.0214,0.0216,0.0203,0.0189,0.0183,0.0145,0.0136,0.0118,0.009,0.0094,0.0078,0.0051,0.005,0.0111,0.0117,0.0122,0.0177,0.007,0,0,0,0,0,0.0267,0.0272,0.0253,0.0254,0.025,0.0234,0.023,0.0222,0.0201,0.0195,0.0168,0.0137,0.0115,0.0101,0.0077,0.0067,0.0083,0.007,0.0076,0.008,0.0119,0.0172,0.0188,0.0021,0.0021,0.0021,0,0,0.0271,0.0265,0.0265,0.0259,0.0252,0.0258,0.0231,0.0229,0.0235,0.0186,0.0182,0.0153,0.0114,0.0108,0.0097,0.0086,0.0125,0.008,0.0085,0.0122,0.0175,0.0191,0.0206,0.0021,0.0021,0.0021,0,0,0.0285,0.0279,0.0289,0.0288,0.028,0.0275,0.0273,0.0259,0.0255,0.0241,0.0213,0.0207,0.0151,0.0157,0.0143,0.0162,0.015,0.0129,0.0206,0.0257,0.0273,0.0287,0.0295,0.0309,0.0134,0.0135,0.0135,0,0.029,0.0304,0.029,0.0301,0.0308,0.0283,0.0302,0.0294,0.0272,0.0289,0.0244,0.0231,0.0189,0.0221,0.0219,0.0181,0.0188,0.0188,0.0269,0.0284,0.0297,0.0302,0.0317,0.0138,0.0138,0.0138,0.0137,0,0.0314,0.0327,0.0332,0.0344,0.035,0.0364,0.0351,0.0361,0.0343,0.0344,0.0363,0.0324,0.0332,0.0301,0.0258,0.0328,0.0293,0.0272,0.0266,0.032,0.032,0.0334,0.0144,0.0143,0.0141,0.014,0,0,0.0331,0.0348,0.0353,0.0378,0.0382,0.0397,0.0413,0.0443,0.0492,0.0456,0.0527,0.0474,0.0477,0.0464,0.0425,0.0455,0.0523,0.0402,0.0402,0.0432,0.061,0.0537,0.0545,0.0516,0.052,0.0523,0.0562,0,0.036,0.04,0.0402,0.045,0.0473,0.0477,0.0511,0.0535,0.0549,0.061,0.0592,0.063,0.0529,0.0553,0.0566,0.0553,0.0569,0.0513,0.0536,0.0537,0.0486,0.0563,0.0528,0.0557,0.0576,0.0578,0.058,0,0.0389,0.0418,0.0468,0.0534,0.0548,0.0576,0.0667,0.0695,0.0762,0.0784,0.0823,0.0812,0.0855,0.0762,0.0779,0.0745,0.0688,0.0658,0.0659,0.0587,0.0493,0.0511,0.0582,0.0449,0.0602,0.06,0.0599,0,0.0422,0.0472,0.0523,0.0538,0.0598,0.0641,0.0684,0.0753,0.0827,0.0918,0.0999,0.1015,0.107,0.1014,0.0918,0.0866,0.0935,0.0857,0.0733,0.0725,0.0701,0.0686,0.0676,0.0881,0.0881,0.0881,0.0881,0,0.0459,0.0503,0.0547,0.0577,0.0678,0.0695,0.0819,0.0872,0.0988,0.1122,0.1103,0.1223,0.1143,0.115,0.1017,0.0932,0.1012,0.0783,0.0755,0.0718,0.0704,0.059,0.0499,0.0883,0.0882,0.0882,0.0882,0,0.0487,0.0507,0.0579,0.0656,0.0692,0.0767,0.0908,0.1015,0.1103,0.1289,0.1336,0.1424,0.1438,0.1315,0.1258,0.1086,0.0901,0.0927,0.0863,0.0826,0.0549,0.0463,0.0432,0.0371,0.0808,0.0807,0.0806,0,0.0512,0.0547,0.0641,0.0714,0.0755,0.0865,0.0967,0.1068,0.1194,0.1418,0.1532,0.161,0.1686,0.155,0.1281,0.1058,0.0905,0.0847,0.0738,0.0566,0.0451,0.0388,0.0335,0.0721,0.072,0.0718,0.0717,0,0.0586,0.0609,0.0673,0.0807,0.0916,0.1041,0.1186,0.1299,0.1455,0.1621,0.1846,0.193,0.1802,0.159,0.1259,0.1079,0.0731,0.0809,0.0684,0.044,0.0326,0.0243,0.0625,0.0706,0.0707,0.0708,0.0708,0.0709,0.0657,0.0718,0.0808,0.0935,0.1061,0.122,0.1334,0.1501,0.1712,0.1961,0.204,0.2179,0.1842,0.1401,0.1145,0.0631,0.0644,0.0453,0.0379,0.0343,0.0246,0.0575,0.0583,0.0584,0.0584,0.0584,0.0585,0,0.0759,0.0828,0.0951,0.1098,0.1235,0.1281,0.1497,0.1618,0.1858,0.2072,0.2248,0.2144,0.1728,0.1282,0.0581,0.0252,0.0151,0.0095,0.0015,-0.0007,0.0343,0.0297,0.0183,0.0183,0.0183,0.0183,0.0183,0.0183,0.083,0.0948,0.0997,0.1228,0.133,0.1515,0.1631,0.1814,0.1985,0.2189,0.2252,0.2288,0.1933,0.0795,0.007,-0.0084,-0.028,-0.0347,-0.0411,-0.018,-0.0152,-0.0125,-0.0187,-0.0401,-0.0402,-0.0726,-0.073,-0.0732]}],[{"header":{"parameterUnit":"m.s-1","parameterCategory":2,"la1":30.2991,"la2":30.254,"lo1":-89.0895,"lo2":-89.0444,"dy":0.0017,"dx":0.0017,"nx":28,"ny":28,"refTime":"2025-05-29T09:00:00:Z","depth":"2","parameterNumber":2,"parameterNumberName":"U-component_of_CURRENTS"},"data":[0,0,0,0,0,0,0,0,0,0,0,0,0,0,0,0,0,0,0,0,0,0,0,0,0,0,0,0,0,0,0,0,0,0,0,0,0,0,0,0,0,0,0,0,0,0,0,0,0,0,0,0,0,0,0,0,0,0,0.2577,0.2579,0,0.2729,0.273,0.2731,0.2786,0.2786,0.2786,0.2786,0.2792,0.2793,0.2793,0,0,0,0,0,0,0,0,0,0,0,0,0,0.2605,0.2602,0.2576,0.2579,0.2581,0.2728,0.273,0.2732,0.2786,0.2786,0.2786,0.2786,0.2792,0.2793,0.2793,0,0,0,0,0,0,0,0,0,0,0,0,0,0.2653,0.2601,0.2576,0.263,0.2636,0.2728,0.273,0.2732,0.2786,0.2786,0.2786,0.2786,0.2792,0.2793,0.2793,0.2798,0,0,0.2794,0.2794,0,0,0,0,0,0,0,0,0.265,0.2651,0.2619,0.2626,0.2634,0.2743,0.2744,0.2749,0.2786,0.2724,0.2786,0.2786,0.2766,0.2768,0.2792,0.2798,0.2798,0.2794,0.2794,0.2795,0.2795,0,0,0,0,0,0,0,0.2646,0.2647,0.2632,0.2622,0.2631,0.274,0.2744,0.2746,0.2737,0.2729,0.2735,0.276,0.2768,0.2792,0.2792,0.2798,0.2794,0.2794,0.2795,0.2795,0.288,0.2882,0,0,0,0,0,0,0.2623,0.2641,0.2627,0.2637,0.2648,0.2739,0.2743,0.2704,0.274,0.2749,0.276,0.2762,0.2791,0.2792,0.2792,0.2861,0.2795,0.2795,0.2795,0.2878,0.288,0.2882,0,0,0,0,0,0,0.2621,0.2617,0.2621,0.2652,0.266,0.2737,0.2694,0.2707,0.2767,0.2766,0.277,0.2811,0.2791,0.2792,0.2806,0.2859,0.2795,0.2795,0.2875,0.2878,0.2881,0.2957,0,0,0,0,0,0,0.262,0.2614,0.2602,0.2647,0.2657,0.2714,0.2695,0.271,0.2783,0.2788,0.281,0.2809,0.2791,0.2805,0.2806,0.2858,0.2796,0.2873,0.2877,0.288,0.2952,0.2963,0.2971,0,0,0,0,0,0.262,0.2611,0.2598,0.26,0.2626,0.2717,0.2734,0.2787,0.2786,0.2835,0.282,0.2811,0.2831,0.2806,0.2807,0.286,0.2871,0.2876,0.288,0.2948,0.2961,0.2971,0,0,0,0,0,0,0.2634,0.2618,0.2604,0.2592,0.2664,0.2729,0.2776,0.2811,0.2844,0.2842,0.2821,0.282,0.2861,0.2847,0.282,0.2898,0.2857,0.2862,0.2908,0.292,0.2929,0.2943,0.2796,0,0,0,0,0,0.2621,0.2591,0.2633,0.2629,0.2657,0.2719,0.2768,0.2813,0.2844,0.2863,0.286,0.2861,0.2878,0.2886,0.2894,0.2925,0.2945,0.2966,0.2975,0.2984,0.2997,0.3084,0.3103,0.2897,0.2897,0.2897,0,0,0.262,0.2615,0.2596,0.263,0.2672,0.2726,0.2747,0.2837,0.2873,0.2852,0.2877,0.2896,0.2894,0.2932,0.295,0.2927,0.3051,0.2989,0.2996,0.3005,0.3091,0.3111,0.3129,0.29,0.29,0.2899,0,0,0.2636,0.2601,0.26,0.2658,0.2742,0.2771,0.2804,0.2878,0.2903,0.2943,0.2938,0.2987,0.2989,0.3014,0.3022,0.3092,0.3101,0.3104,0.316,0.3245,0.3263,0.3279,0.332,0.3339,0.3105,0.3106,0.3106,0,0.2651,0.2628,0.2636,0.2684,0.2721,0.2785,0.2834,0.2877,0.2946,0.297,0.2956,0.3037,0.3031,0.3108,0.3125,0.3117,0.3151,0.3113,0.3259,0.3276,0.3291,0.3328,0.3348,0.311,0.3109,0.3109,0.3109,0,0.2679,0.2683,0.2704,0.273,0.2781,0.2848,0.2895,0.2951,0.297,0.3013,0.3104,0.3124,0.3186,0.3198,0.317,0.3291,0.3275,0.3265,0.323,0.3316,0.335,0.3369,0.3116,0.3114,0.3113,0.3112,0,0,0.2645,0.2703,0.2707,0.2746,0.2811,0.287,0.2907,0.298,0.3037,0.3107,0.3197,0.3238,0.33,0.3315,0.3337,0.3396,0.3514,0.3375,0.3377,0.3414,0.3686,0.35,0.3502,0.3539,0.3543,0.3546,0.3662,0,0.2669,0.2721,0.2744,0.2822,0.2857,0.2918,0.2942,0.3023,0.3079,0.3183,0.3267,0.3349,0.3331,0.339,0.3462,0.351,0.3572,0.3482,0.3597,0.36,0.3425,0.3521,0.3238,0.3302,0.3681,0.3684,0.3686,0,0.2686,0.2715,0.2743,0.2849,0.2871,0.2929,0.3009,0.3063,0.3196,0.3251,0.3389,0.3456,0.3589,0.3556,0.3711,0.366,0.3684,0.3703,0.3709,0.3523,0.345,0.328,0.3323,0.3719,0.3716,0.3714,0.3712,0,0.2639,0.2737,0.2736,0.277,0.2868,0.2919,0.2993,0.3088,0.3161,0.3328,0.3433,0.3579,0.3694,0.377,0.3797,0.3781,0.3939,0.3925,0.3783,0.3769,0.3541,0.3498,0.4038,0.4038,0.4037,0.4037,0.4037,0,0.2637,0.2664,0.2731,0.2757,0.2831,0.2904,0.3009,0.3107,0.3258,0.3362,0.3496,0.3614,0.3756,0.3853,0.3863,0.387,0.4001,0.3812,0.38,0.3553,0.3513,0.3879,0.386,0.4041,0.404,0.4039,0.4039,0,0.2579,0.259,0.2661,0.2771,0.2811,0.2877,0.3064,0.3151,0.3279,0.3442,0.3506,0.3697,0.3784,0.387,0.3975,0.3936,0.3952,0.3909,0.3576,0.3521,0.3716,0.3699,0.3812,0.3806,0.3802,0.3798,0.3795,0,0.2526,0.2545,0.2676,0.2737,0.2802,0.2911,0.2982,0.3139,0.3224,0.3452,0.3528,0.3687,0.3728,0.3816,0.3758,0.3745,0.385,0.3465,0.3373,0.3723,0.3701,0.3691,0.368,0.3114,0.3105,0.3098,0.3093,0,0.2489,0.2539,0.2617,0.2721,0.2819,0.2907,0.3037,0.3096,0.3238,0.3339,0.3423,0.3474,0.3566,0.3402,0.339,0.3345,0.3442,0.3319,0.3826,0.3182,0.3065,0.3043,0.3056,0.3031,0.3037,0.3042,0.3045,0.3047,0.2494,0.2547,0.2639,0.2739,0.2828,0.2853,0.2856,0.2962,0.3001,0.3062,0.3187,0.3151,0.3188,0.3002,0.289,0.2822,0.3068,0.2949,0.2972,0.3002,0.2868,0.2746,0.2626,0.263,0.2633,0.2636,0.2638,0,0.2472,0.2548,0.2658,0.2721,0.2717,0.28,0.283,0.2751,0.2692,0.2796,0.2784,0.2533,0.243,0.248,0.2275,0.225,0.2252,0.2162,0.216,0.2223,0.2278,0.2108,0.1665,0.1662,0.1659,0.1656,0,0,0.2517,0.2518,0.2557,0.2528,0.2574,0.2482,0.2442,0.2351,0.2343,0.2245,0.2199,0.2338,0.2421,0.2024,0.1957,0.1781,0.1992,0.1706,0.2493,0.2555,0.2607,0.274,0.2548,0,0,0,0,0]},{"header":{"parameterUnit":"m.s-1","parameterCategory":2,"la1":30.2991,"la2":30.254,"lo1":-89.0895,"lo2":-89.0444,"dy":0.0017,"dx":0.0017,"nx":28,"ny":28,"refTime":"2025-05-29T09:00:00:Z","depth":"2","parameterNumber":3,"parameterNumberName":"V-component_of_CURRENTS"},"data":[0,0,0,0,0,0,0,0,0,0,0,0,0,0,0,0,0,0,0,0,0,0,0,0,0,0,0,0,0,0,0,0,0,0,0,0,0,0,0,0,0,0,0,0,0,0,0,0,0,0,0,0,0,0,0,0,0,0,0.0128,0.0128,0,0.0132,0.0132,0.0132,0.0117,0.0117,0.0116,0.0116,0.0048,0.0046,0.0045,0,0,0,0,0,0,0,0,0,0,0,0,0,0.0125,0.0125,0.0128,0.0128,0.0128,0.0132,0.0132,0.0132,0.0117,0.0117,0.0116,0.0115,0.0048,0.0046,0.0045,0,0,0,0,0,0,0,0,0,0,0,0,0,0.0129,0.0125,0.0128,0.012,0.0119,0.0132,0.0132,0.0132,0.0118,0.0117,0.0116,0.0115,0.0048,0.0047,0.0045,0.005,0,0,0.0039,0.0038,0,0,0,0,0,0,0,0,0.0128,0.0129,0.0121,0.0121,0.012,0.0122,0.0106,0.0101,0.0118,0.012,0.0116,0.0115,0.0065,0.0062,0.0068,0.0047,0.0044,0.0039,0.0038,0.0037,0.0036,0,0,0,0,0,0,0,0.0128,0.0129,0.0131,0.0121,0.012,0.0122,0.0121,0.0105,0.0097,0.012,0.0118,0.0116,0.0065,0.007,0.0066,0.0043,0.0039,0.0037,0.0036,0.0035,-0.0,0.0,0,0,0,0,0,0,0.0125,0.0129,0.0131,0.0131,0.012,0.0122,0.0122,0.0123,0.0099,0.0095,0.0117,0.0116,0.0074,0.0068,0.0063,0.0067,0.0037,0.0035,0.0034,-0.0,-0.0,0.0,0,0,0,0,0,0,0.0125,0.0125,0.0131,0.0129,0.0129,0.0123,0.0125,0.0124,0.0124,0.0098,0.0092,0.0118,0.0073,0.0066,0.0049,0.0064,0.0034,0.0032,-0.0001,-0.0,0.0,0.0075,0,0,0,0,0,0,0.0125,0.0125,0.0126,0.0129,0.0129,0.0145,0.0126,0.0125,0.0124,0.0122,0.0096,0.0089,0.0071,0.0052,0.0047,0.0061,0.0031,-0.0001,-0.0,-0.0,0.0072,0.0078,0.0082,0,0,0,0,0,0.0125,0.0134,0.0126,0.0126,0.013,0.0146,0.0147,0.014,0.0125,0.0135,0.0111,0.009,0.0051,0.0051,0.0045,0.0059,-0.0001,-0.0,-0.0,0.007,0.0077,0.0082,0,0,0,0,0,0,0.0133,0.0133,0.0125,0.0132,0.0139,0.0143,0.015,0.0142,0.0134,0.0128,0.0095,0.0088,0.0078,0.0055,0.0056,0.0047,0.002,0.002,0.0075,0.0081,0.0086,0.0114,0.0029,0,0,0,0,0,0.0134,0.0143,0.0141,0.015,0.0153,0.015,0.0153,0.0152,0.0144,0.0141,0.0117,0.0092,0.0077,0.0068,0.0049,0.0048,0.0033,0.0049,0.0055,0.0059,0.0077,0.0076,0.0083,0.0002,0.0002,0.0002,0,0,0.014,0.0142,0.0146,0.0153,0.0157,0.0176,0.0151,0.0164,0.0182,0.0133,0.014,0.0108,0.0079,0.0079,0.0072,0.0061,0.007,0.006,0.0065,0.0079,0.0077,0.0085,0.0093,0.0002,0.0002,0.0002,0,0,0.0168,0.0158,0.0177,0.0186,0.0194,0.0196,0.0198,0.0199,0.0201,0.02,0.0171,0.0154,0.0121,0.0118,0.0108,0.013,0.0095,0.011,0.0164,0.0163,0.0171,0.0177,0.0155,0.0158,0.0116,0.0116,0.0116,0,0.0173,0.02,0.0187,0.021,0.0226,0.0206,0.0238,0.024,0.0234,0.0243,0.0208,0.0183,0.0148,0.0171,0.0169,0.0146,0.0127,0.0147,0.0173,0.0179,0.0184,0.016,0.0163,0.012,0.0119,0.0119,0.0119,0,0.022,0.0239,0.0254,0.0277,0.029,0.0317,0.0317,0.0329,0.0313,0.0307,0.0312,0.0272,0.0262,0.024,0.0207,0.0231,0.0199,0.0179,0.0164,0.0197,0.0168,0.0171,0.0125,0.0124,0.0122,0.0122,0,0,0.0239,0.028,0.0285,0.0316,0.0332,0.0355,0.0385,0.0415,0.0453,0.0414,0.0456,0.0408,0.0378,0.0366,0.0327,0.0317,0.0319,0.0262,0.0261,0.0253,0.0299,0.0238,0.0234,0.0302,0.0303,0.0304,0.026,0,0.0284,0.035,0.0353,0.042,0.0458,0.0458,0.05,0.0518,0.052,0.055,0.0506,0.0518,0.043,0.0435,0.0407,0.0349,0.033,0.0332,0.0258,0.0255,0.0208,0.0237,0.026,0.022,0.0262,0.0262,0.0262,0,0.0329,0.0375,0.0452,0.0519,0.0536,0.0565,0.064,0.0677,0.0703,0.0709,0.07,0.0659,0.0638,0.0562,0.0479,0.0481,0.0396,0.0339,0.0336,0.026,0.0199,0.0194,0.0221,0.0265,0.0265,0.0265,0.0265,0,0.0367,0.044,0.0512,0.0534,0.0605,0.0641,0.0673,0.0719,0.0785,0.0814,0.0856,0.0802,0.0799,0.0692,0.0535,0.0517,0.0434,0.0401,0.0267,0.0261,0.0258,0.025,0.0352,0.0352,0.0352,0.0352,0.0352,0,0.0418,0.0477,0.0538,0.0576,0.0681,0.0698,0.0801,0.0838,0.0913,0.1004,0.094,0.0992,0.0831,0.075,0.0592,0.0428,0.0475,0.0287,0.0255,0.028,0.0274,0.0297,0.0291,0.035,0.035,0.0351,0.0351,0,0.0462,0.05,0.0588,0.0667,0.0702,0.0775,0.0885,0.0975,0.1026,0.1149,0.1169,0.1144,0.1036,0.0849,0.068,0.0518,0.0362,0.0289,0.031,0.0281,0.0175,0.0173,0.016,0.0157,0.0155,0.0154,0.0152,0,0.0494,0.0549,0.065,0.0723,0.0762,0.0866,0.0961,0.1033,0.1137,0.1243,0.1319,0.1251,0.1207,0.0917,0.0641,0.0369,0.0336,0.0204,0.0175,0.0191,0.016,0.0162,0.0163,0.0195,0.0194,0.0193,0.0193,0,0.0571,0.0603,0.0674,0.081,0.0912,0.1041,0.1161,0.1254,0.1361,0.1441,0.1517,0.1481,0.1226,0.0952,0.0578,0.0394,0.0246,0.0178,0.022,0.0229,0.0217,0.0189,0.0191,0.0186,0.0187,0.0187,0.0188,0.0188,0.062,0.069,0.0782,0.0913,0.1038,0.1195,0.1277,0.1409,0.1545,0.1643,0.1621,0.1554,0.1288,0.0794,0.0495,0.0183,0.0202,0.0084,0.009,0.0096,0.0097,0.0081,0.0024,0.0024,0.0023,0.0023,0.0023,0,0.0695,0.0779,0.0893,0.1037,0.1162,0.1225,0.1414,0.1482,0.1605,0.168,0.1687,0.1401,0.1122,0.0813,0.0356,0.008,0.0078,-0.0016,0.0055,0.0063,0.007,0.0073,-0.0009,-0.001,-0.001,-0.0011,0,0,0.074,0.0863,0.0919,0.1118,0.1215,0.1375,0.1464,0.1555,0.1626,0.1641,0.1599,0.1534,0.1197,0.0855,0.0501,0.0247,0.0211,0.0188,0.0242,0.0375,0.0385,0.0155,0.0171,0,0,0,0,0]}],[{"header":{"parameterUnit":"m.s-1","parameterCategory":2,"la1":30.2991,"la2":30.254,"lo1":-89.0895,"lo2":-89.0444,"dy":0.0017,"dx":0.0017,"nx":28,"ny":28,"refTime":"2025-05-29T09:00:00:Z","depth":"4","parameterNumber":2,"parameterNumberName":"U-component_of_CURRENTS"},"data":[0,0,0,0,0,0,0,0,0,0,0,0,0,0,0,0,0,0,0,0,0,0,0,0,0,0,0,0,0,0,0,0,0,0,0,0,0,0,0,0,0,0,0,0,0,0,0,0,0,0,0,0,0,0,0,0,0,0,0.1344,0.1345,0,0.144,0.1442,0.1443,0.1519,0.152,0.1521,0.1521,0.1556,0.1556,0.1557,0,0,0,0,0,0,0,0,0,0,0,0,0,0.1344,0.1343,0.1344,0.1345,0.1346,0.144,0.1442,0.1443,0.1519,0.152,0.1521,0.1521,0.1556,0.1556,0.1557,0,0,0,0,0,0,0,0,0,0,0,0,0,0.1385,0.1343,0.1344,0.1394,0.1399,0.144,0.1442,0.1444,0.1519,0.152,0.1521,0.1522,0.1556,0.1556,0.1557,0.1545,0,0,0.1559,0.1559,0,0,0,0,0,0,0,0,0.1382,0.1385,0.1385,0.139,0.1396,0.1467,0.1455,0.1473,0.1519,0.1476,0.1521,0.1522,0.1518,0.1522,0.1543,0.1546,0.1548,0.1559,0.1559,0.156,0.156,0,0,0,0,0,0,0,0.1379,0.1382,0.1385,0.1386,0.1393,0.1451,0.1457,0.146,0.1492,0.148,0.1485,0.1492,0.1521,0.1542,0.1544,0.1548,0.1559,0.156,0.156,0.156,0.1604,0.1605,0,0,0,0,0,0,0.1355,0.1378,0.1382,0.1387,0.1388,0.145,0.1457,0.1445,0.1494,0.1502,0.1491,0.1495,0.154,0.1543,0.1545,0.16,0.156,0.156,0.1561,0.1603,0.1604,0.1605,0,0,0,0,0,0,0.1354,0.1353,0.1378,0.1385,0.1391,0.1448,0.1435,0.1447,0.15,0.1502,0.151,0.1536,0.1541,0.1544,0.156,0.1599,0.156,0.1561,0.1602,0.1604,0.1605,0.1666,0,0,0,0,0,0,0.1353,0.1352,0.1355,0.1382,0.139,0.142,0.1435,0.1448,0.1499,0.1507,0.1542,0.1545,0.1542,0.1559,0.1561,0.1599,0.1562,0.1601,0.1603,0.1604,0.1663,0.167,0.1675,0,0,0,0,0,0.1353,0.1341,0.1354,0.1356,0.1385,0.1421,0.1432,0.1477,0.1501,0.1528,0.1542,0.1546,0.157,0.156,0.1562,0.1602,0.1601,0.1603,0.1604,0.1661,0.1668,0.1675,0,0,0,0,0,0,0.1353,0.1348,0.1363,0.1355,0.1396,0.1433,0.1464,0.1494,0.1531,0.1546,0.1548,0.1551,0.1591,0.1576,0.1564,0.1617,0.159,0.1592,0.1632,0.1639,0.1645,0.1668,0.1562,0,0,0,0,0,0.1349,0.1334,0.1361,0.1361,0.1383,0.1433,0.1461,0.1494,0.1521,0.1543,0.1558,0.1573,0.1594,0.16,0.1615,0.1629,0.1652,0.1657,0.1663,0.1668,0.1687,0.1753,0.1767,0.1611,0.1611,0.1611,0,0,0.1353,0.1347,0.1344,0.1361,0.14,0.1428,0.1454,0.1505,0.1534,0.1535,0.1578,0.1602,0.1605,0.1635,0.165,0.1629,0.1722,0.167,0.1675,0.1691,0.1756,0.1772,0.1786,0.1612,0.1612,0.1612,0,0,0.1347,0.1352,0.1346,0.1376,0.1425,0.145,0.147,0.1522,0.156,0.1596,0.1613,0.1652,0.1669,0.1687,0.1694,0.1735,0.176,0.1746,0.1785,0.1848,0.1863,0.1875,0.1918,0.1934,0.1737,0.1737,0.1737,0,0.1363,0.1348,0.136,0.1374,0.1404,0.1459,0.1489,0.1526,0.1577,0.1609,0.1615,0.1694,0.1696,0.1747,0.1765,0.1753,0.1791,0.176,0.1859,0.1872,0.1884,0.1925,0.1942,0.174,0.1739,0.1739,0.1739,0,0.1355,0.1362,0.1372,0.1391,0.1425,0.1466,0.1511,0.1553,0.16,0.1643,0.1726,0.1748,0.1796,0.1806,0.1799,0.1888,0.1888,0.1871,0.1847,0.1904,0.1942,0.1959,0.1744,0.1743,0.1742,0.1742,0,0,0.1346,0.1361,0.1372,0.1387,0.1446,0.1469,0.1518,0.1582,0.1633,0.1698,0.1776,0.1826,0.1876,0.1889,0.1904,0.1955,0.2063,0.1956,0.1958,0.2008,0.2211,0.2035,0.2036,0.2079,0.2083,0.2085,0.2202,0,0.1355,0.1356,0.1378,0.1415,0.1426,0.1491,0.1535,0.16,0.1665,0.1746,0.1816,0.1899,0.1895,0.1947,0.2,0.2063,0.2112,0.2033,0.214,0.2143,0.1988,0.2051,0.2096,0.2214,0.2218,0.2221,0.2223,0,0.1343,0.1342,0.1368,0.1415,0.1438,0.1484,0.1573,0.1627,0.1742,0.1799,0.1899,0.1966,0.2074,0.2058,0.2202,0.2162,0.2197,0.223,0.2235,0.2064,0.1997,0.2145,0.2253,0.225,0.2248,0.2246,0.2244,0,0.1294,0.1337,0.1354,0.1374,0.1439,0.1493,0.1555,0.1659,0.1726,0.1863,0.1936,0.206,0.2158,0.2233,0.2299,0.2278,0.2444,0.241,0.2281,0.2269,0.2367,0.2352,0.2507,0.2507,0.2507,0.2506,0.2506,0,0.126,0.1272,0.1344,0.1353,0.1416,0.1485,0.1585,0.1653,0.1789,0.1878,0.1987,0.2072,0.2218,0.2317,0.2348,0.2365,0.2484,0.2308,0.2294,0.2386,0.2372,0.2378,0.2362,0.2511,0.251,0.2509,0.2508,0,0.1172,0.1219,0.1253,0.1351,0.1389,0.1447,0.16,0.1662,0.18,0.1922,0.1981,0.2141,0.2263,0.2358,0.2488,0.2417,0.2448,0.2415,0.2515,0.2502,0.2221,0.2207,0.2296,0.2291,0.2286,0.2283,0.228,0,0.1114,0.1117,0.124,0.1287,0.1343,0.1442,0.1506,0.1652,0.1719,0.1936,0.1981,0.2163,0.2246,0.2296,0.2389,0.2431,0.2393,0.2382,0.2293,0.2226,0.2205,0.2196,0.2188,0.2273,0.2272,0.227,0.2269,0,0.1019,0.109,0.113,0.1229,0.1317,0.1371,0.1481,0.1525,0.1697,0.1838,0.1942,0.2012,0.2138,0.2214,0.2257,0.2275,0.2375,0.2336,0.2344,0.2261,0.2199,0.218,0.2177,0.2254,0.2257,0.2258,0.2259,0,0.0981,0.0996,0.1091,0.1169,0.1259,0.1288,0.1351,0.1438,0.153,0.1763,0.1795,0.1972,0.2129,0.2133,0.2173,0.2177,0.2142,0.2053,0.2075,0.2093,0.1966,0.1854,0.1808,0,0,0,0,0,0.0948,0.0956,0.1016,0.1102,0.118,0.1229,0.1324,0.139,0.1562,0.159,0.1691,0.179,0.1871,0.1954,0.1921,0.2069,0.2138,0.2016,0.2044,0.2171,0.2189,0.2053,0,0,0,0,0,0,0.0913,0.0975,0.099,0.1033,0.1067,0.113,0.1183,0.1285,0.1305,0.1489,0.1546,0.1675,0.1782,0.1892,0.1893,0.1914,0.1888,0.212,0.2115,0.2162,0.2177,0.2191,0.2058,0,0,0,0,0]},{"header":{"parameterUnit":"m.s-1","parameterCategory":2,"la1":30.2991,"la2":30.254,"lo1":-89.0895,"lo2":-89.0444,"dy":0.0017,"dx":0.0017,"nx":28,"ny":28,"refTime":"2025-05-29T09:00:00:Z","depth":"4","parameterNumber":3,"parameterNumberName":"V-component_of_CURRENTS"},"data":[0,0,0,0,0,0,0,0,0,0,0,0,0,0,0,0,0,0,0,0,0,0,0,0,0,0,0,0,0,0,0,0,0,0,0,0,0,0,0,0,0,0,0,0,0,0,0,0,0,0,0,0,0,0,0,0,0,0,0.0153,0.0153,0,0.0171,0.0171,0.0171,0.0164,0.0163,0.0163,0.0162,0.0147,0.0147,0.0147,0,0,0,0,0,0,0,0,0,0,0,0,0,0.013,0.0131,0.0153,0.0153,0.0154,0.0171,0.0171,0.0171,0.0164,0.0163,0.0163,0.0162,0.0147,0.0147,0.0147,0,0,0,0,0,0,0,0,0,0,0,0,0,0.0144,0.0131,0.0153,0.0151,0.0151,0.0171,0.0171,0.0172,0.0164,0.0163,0.0162,0.0162,0.0147,0.0147,0.0147,0.0163,0,0,0.0147,0.0147,0,0,0,0,0,0,0,0,0.0143,0.0145,0.0151,0.0151,0.0151,0.0163,0.0157,0.0167,0.0164,0.016,0.0162,0.0161,0.0149,0.0149,0.0156,0.0163,0.0162,0.0147,0.0147,0.0147,0.0147,0,0,0,0,0,0,0,0.0142,0.0144,0.0161,0.0151,0.0151,0.0155,0.0156,0.0159,0.0159,0.016,0.016,0.016,0.0149,0.0156,0.0155,0.0162,0.0147,0.0147,0.0147,0.0147,0.0165,0.0165,0,0,0,0,0,0,0.0138,0.0144,0.0161,0.0162,0.0144,0.0156,0.0157,0.0161,0.016,0.0159,0.0161,0.016,0.0156,0.0155,0.0155,0.0172,0.0147,0.0147,0.0148,0.0165,0.0165,0.0165,0,0,0,0,0,0,0.0138,0.014,0.016,0.0152,0.0155,0.0157,0.0162,0.0162,0.0167,0.016,0.0159,0.0165,0.0156,0.0155,0.0161,0.0171,0.0148,0.0148,0.0164,0.0165,0.0165,0.0207,0,0,0,0,0,0,0.0137,0.014,0.0143,0.0152,0.0155,0.0179,0.0162,0.0163,0.0168,0.0167,0.0164,0.0162,0.0155,0.0161,0.0161,0.0171,0.0148,0.0164,0.0164,0.0165,0.0205,0.0209,0.0212,0,0,0,0,0,0.0136,0.0148,0.0143,0.0145,0.0159,0.018,0.0183,0.0182,0.0169,0.0182,0.0175,0.0162,0.0165,0.0162,0.0162,0.0171,0.0163,0.0164,0.0165,0.0203,0.0208,0.0212,0,0,0,0,0,0,0.0141,0.0149,0.0144,0.0157,0.0169,0.0178,0.0188,0.0185,0.019,0.0187,0.0173,0.0171,0.0178,0.017,0.0166,0.0177,0.016,0.0161,0.0189,0.0193,0.0197,0.0197,0.0148,0,0,0,0,0,0.0143,0.0155,0.0161,0.0174,0.0179,0.0183,0.019,0.0193,0.0197,0.0199,0.0191,0.0184,0.0183,0.0184,0.0182,0.0195,0.0162,0.0198,0.0202,0.0205,0.0205,0.016,0.0159,0.0168,0.0168,0.0168,0,0,0.0149,0.0155,0.0161,0.0176,0.0183,0.0205,0.0186,0.0205,0.0223,0.0196,0.0212,0.0197,0.0189,0.02,0.0202,0.0194,0.0186,0.0206,0.0209,0.0207,0.0161,0.016,0.0159,0.0169,0.0169,0.0169,0,0,0.0177,0.0172,0.0193,0.0206,0.0222,0.0225,0.023,0.024,0.0242,0.0259,0.0238,0.0227,0.0234,0.0224,0.0221,0.0243,0.0204,0.0242,0.0264,0.0222,0.022,0.0219,0.0178,0.0173,0.0246,0.0246,0.0246,0,0.0182,0.0211,0.0205,0.0232,0.0246,0.0235,0.0266,0.0272,0.0281,0.028,0.027,0.0255,0.0245,0.0247,0.0254,0.025,0.0219,0.0251,0.0225,0.0223,0.0221,0.018,0.0173,0.0248,0.0248,0.0248,0.0248,0,0.0227,0.0253,0.0268,0.0296,0.0309,0.0336,0.0339,0.0347,0.034,0.0335,0.0329,0.0309,0.0297,0.0291,0.0284,0.0266,0.0246,0.0233,0.0214,0.0222,0.0179,0.0171,0.0251,0.0251,0.025,0.0249,0,0,0.0239,0.029,0.0296,0.0324,0.0346,0.0364,0.0387,0.0402,0.041,0.0397,0.0397,0.0383,0.0351,0.0344,0.032,0.0284,0.0242,0.0257,0.0253,0.0216,0.0145,0.0141,0.0131,0.0221,0.022,0.0219,0.0122,0,0.028,0.0346,0.0356,0.0415,0.0449,0.0445,0.0466,0.0472,0.0465,0.0459,0.0418,0.0413,0.0378,0.0373,0.0328,0.0267,0.0223,0.027,0.0143,0.0139,0.0134,0.0123,0.0216,0.0116,0.0114,0.0112,0.0111,0,0.0323,0.0364,0.0432,0.0481,0.0491,0.052,0.0541,0.0562,0.0543,0.0535,0.0504,0.0467,0.042,0.0388,0.0271,0.0301,0.0227,0.017,0.0165,0.014,0.0121,0.0104,0.0097,0.0098,0.0099,0.01,0.0101,0,0.0346,0.0415,0.0472,0.0492,0.0541,0.0564,0.0583,0.0583,0.0607,0.0583,0.0584,0.0509,0.0486,0.0375,0.026,0.0264,0.0119,0.0109,0.003,0.0028,0.0043,0.0045,0.0014,0.0015,0.0015,0.0015,0.0015,0,0.0388,0.0434,0.0492,0.0525,0.0588,0.0601,0.0651,0.0658,0.0667,0.0689,0.0625,0.0615,0.0481,0.0385,0.0265,0.0123,0.0118,0.0027,0.0001,0.0063,0.0069,0.0037,0.0041,0.0011,0.0012,0.0013,0.0014,0,0.0414,0.0452,0.0521,0.0581,0.0609,0.0652,0.0718,0.0747,0.0748,0.0774,0.0772,0.0698,0.0576,0.0425,0.0249,0.0148,0.0003,-0.0049,0.0029,0.0009,-0.0061,-0.0054,-0.0144,-0.0145,-0.0146,-0.0147,-0.0147,0,0.0431,0.0476,0.0564,0.0608,0.0644,0.0712,0.0761,0.0793,0.0823,0.082,0.0829,0.0735,0.0662,0.0407,0.0246,0.0009,-0.0022,-0.0103,-0.0085,-0.0062,-0.0079,-0.007,-0.0062,-0.0149,-0.0149,-0.0149,-0.0149,0,0.0465,0.0499,0.0555,0.0649,0.0716,0.0788,0.0853,0.0888,0.0914,0.0918,0.0874,0.075,0.0611,0.0416,0.0234,0.0063,-0.0055,-0.0113,-0.0112,-0.0095,-0.0069,-0.0083,-0.0074,-0.0152,-0.0152,-0.0152,-0.0152,0,0.0477,0.0525,0.0598,0.0682,0.0761,0.0828,0.087,0.0902,0.0937,0.0932,0.0914,0.0765,0.0686,0.0443,0.027,0.0107,0.0068,0.0009,0.0002,0.0004,0.0076,0.0133,0.0084,0,0,0,0,0,0.0484,0.0546,0.0623,0.0706,0.0779,0.0828,0.0911,0.0941,0.0975,0.0953,0.0937,0.0805,0.0567,0.0463,0.03,0.0247,0.0032,0.0048,-0.004,-0.0169,-0.0165,-0.0106,0,0,0,0,0,0,0.0492,0.0568,0.0622,0.0707,0.0759,0.0843,0.0898,0.0928,0.0912,0.0921,0.0799,0.0748,0.0518,0.0654,0.0289,0.0241,0.0159,-0.0059,-0.0063,-0.0171,-0.0168,-0.0165,-0.0103,0,0,0,0,0]}]]